Theta_e
303 303 303 304 304 304 305 305 305 305 306 307 307 307 308 308 308 304 301 305 298 292 293 296 297 293 292 292 287 291 290 291 292 287 287 288 287 288 286 291 292 293 292 292 291 290 290 309 307 299 302 306 310 310
303 303 303 303 304 304 304 303 304 304 305 306 307 307 307 308 308 308 300 306 307 297 294 300 300 301 299 296 293 292 292 291 295 290 290 291 289 290 288 284 293 291 294 292 294 298 304 308 307 314 312 310 309 312
302 303 303 303 303 303 303 303 303 304 305 306 307 307 308 306 308 307 301 304 303 296 295 297 297 303 305 302 301 291 296 297 296 296 295 293 288 293 286 287 288 293 296 294 295 302 299 306 307 307 311 312 313 314
302 303 303 303 303 303 303 303 303 304 305 306 307 308 308 307 307 307 301 304 302 297 291 293 303 302 306 304 302 301 299 300 298 298 293 291 289 295 289 291 289 293 294 292 294 297 300 303 302 303 313 312 311 313
302 302 302 303 303 303 303 303 304 304 305 306 307 307 307 305 306 306 304 305 307 297 290 291 298 304 305 304 302 302 299 297 294 291 291 288 292 292 293 293 290 294 293 290 291 296 297 297 301 302 309 312 312 312
301 301 302 302 303 303 303 303 304 305 306 307 307 307 307 306 307 302 298 306 307 302 293 288 298 301 302 303 302 300 298 298 295 291 291 292 296 292 288 286 295 298 299 300 296 300 300 301 303 304 304 311 312 312
301 301 302 302 303 303 303 304 304 305 306 306 306 307 307 307 303 299 297 302 304 302 295 289 290 298 302 300 299 298 300 297 295 292 290 291 292 294 289 286 294 296 298 300 301 299 298 301 299 303 304 312 313 313
301 301 301 302 302 303 303 304 305 305 306 306 306 306 308 306 304 301 306 307 305 299 298 288 289 294 301 294 292 298 295 295 294 292 292 290 292 290 285 291 294 296 297 299 299 301 302 302 302 302 305 306 309 309
300 301 301 302 302 302 303 304 305 305 305 305 306 307 306 302 301 302 308 307 304 299 291 291 288 286 299 296 295 296 297 289 294 289 290 291 288 285 290 291 294 295 295 297 298 299 300 300 300 302 303 303 307 308
300 301 301 302 302 302 303 304 305 305 305 306 306 303 300 302 309 308 303 299 297 298 297 290 296 290 296 294 291 292 294 289 286 289 294 289 288 293 295 296 296 297 297 297 295 296 297 299 300 302 302 306 306 307
300 300 301 301 302 302 303 304 305 305 307 305 300 299 304 310 305 301 294 292 294 290 296 295 296 293 299 291 290 291 287 289 284 289 290 288 287 293 297 299 301 301 300 299 298 300 299 301 300 302 302 307 308 308
300 300 300 301 302 303 304 304 304 303 303 302 300 303 305 303 298 293 290 293 292 289 295 294 295 297 297 296 289 289 285 287 282 291 289 286 290 293 295 296 298 301 303 299 300 300 301 302 304 304 305 306 307 308
300 300 300 301 302 303 304 303 303 304 305 307 301 300 295 294 287 285 284 288 289 294 296 295 294 295 297 292 288 286 283 283 290 286 285 287 292 292 291 296 299 302 303 304 302 301 302 303 305 305 305 308 308 307
299 300 300 301 302 304 302 302 303 304 303 301 296 286 290 287 290 290 291 292 296 296 296 297 295 293 296 290 289 285 289 287 284 282 283 288 290 292 293 296 296 297 299 300 304 306 307 303 305 306 307 306 307 307
299 300 300 302 302 301 301 302 303 309 305 297 296 286 290 296 297 297 297 296 297 298 297 296 295 295 291 288 289 287 284 282 284 283 286 290 293 294 294 295 296 297 298 298 301 304 305 307 307 307 307 305 306 308
299 300 302 301 301 300 301 303 309 311 306 300 298 294 296 294 294 295 295 295 299 298 299 297 291 289 288 288 285 283 283 282 284 285 289 294 296 296 298 298 299 299 299 300 302 303 304 305 306 307 309 310 311 310
298 297 301 300 300 300 302 303 309 302 300 297 296 300 297 296 295 296 297 296 300 297 293 293 286 285 291 285 285 285 285 286 290 294 297 298 299 300 300 300 301 301 300 300 301 300 302 307 310 309 307 309 312 318
294 296 299 299 299 300 306 308 304 300 294 297 295 296 298 298 297 297 298 300 298 296 296 293 295 287 285 283 284 289 290 294 296 297 299 301 301 302 303 301 302 302 302 302 301 303 304 304 304 305 308 311 313 314
296 297 298 299 299 297 299 304 305 295 296 299 298 298 299 299 301 300 301 301 301 302 299 296 291 289 290 294 293 294 297 297 297 299 300 302 303 303 304 304 303 303 303 302 302 302 304 305 305 307 308 309 308 310
298 299 299 301 301 300 299 300 307 299 295 298 299 296 297 298 299 300 299 299 299 296 293 292 293 294 295 298 299 298 298 302 299 296 297 301 302 302 302 302 302 303 303 304 304 299 304 304 306 306 306 306 307 307
297 300 301 302 301 301 301 299 298 300 299 297 298 297 296 299 298 297 298 299 296 294 292 296 296 299 301 301 302 302 301 300 299 299 297 297 301 300 301 302 303 302 302 302 302 301 301 303 305 306 307 306 308 308
296 300 301 304 299 302 300 303 298 299 297 296 296 297 295 294 295 296 299 296 295 296 298 297 298 299 300 300 302 303 302 302 301 301 300 300 299 297 298 300 300 301 301 302 302 302 302 304 305 307 307 307 307 307
298 301 299 300 295 293 291 302 296 296 292 294 296 293 294 294 296 298 295 295 297 300 300 300 300 302 300 302 302 302 302 301 300 301 300 301 301 301 299 300 301 300 298 300 303 303 303 298 302 304 306 305 306 305
299 295 292 292 294 288 297 292 298 295 294 291 291 288 291 292 295 291 290 293 297 300 299 299 299 298 300 301 299 299 300 302 301 300 301 301 299 300 301 300 300 301 301 302 302 302 303 304 300 304 304 303 303 304
285 286 289 286 292 291 289 289 290 291 288 289 287 288 291 294 290 289 288 292 296 297 298 299 298 297 296 298 300 301 303 302 301 299 301 302 301 300 301 300 301 301 302 301 300 301 301 302 302 304 304 302 301 302
280 285 286 287 289 289 290 286 287 287 289 287 288 293 293 289 286 286 290 293 295 297 297 298 296 295 295 298 298 298 299 301 302 298 299 301 300 298 298 297 297 298 301 301 302 301 301 301 301 301 301 301 296 303
281 283 288 293 293 292 290 292 292 290 287 286 289 289 288 283 284 289 295 298 297 297 298 297 296 295 295 296 298 299 300 301 301 301 302 302 301 300 301 297 296 298 300 300 303 303 302 301 301 300 298 299 298 298
285 287 283 286 288 289 285 286 287 287 289 292 291 286 285 285 286 294 297 300 300 298 297 296 296 295 295 297 298 298 298 299 301 302 303 303 302 300 299 301 302 293 299 296 301 301 301 301 300 300 297 295 294 295
285 289 288 284 285 286 286 285 285 290 294 291 288 287 289 293 296 296 296 297 299 296 294 293 295 296 296 296 300 300 299 298 295 294 294 293 294 296 298 298 299 300 301 298 286 292 295 294 296 296 294 294 293 293
285 289 286 286 284 283 286 291 291 294 295 295 294 293 293 295 297 299 297 295 294 293 294 295 295 294 294 296 297 297 299 298 296 293 291 291 293 296 296 296 297 297 298 298 298 295 289 292 291 292 291 289 288 286
289 289 286 286 285 289 292 295 296 296 295 294 294 291 292 294 295 297 297 296 295 296 295 295 295 297 297 296 296 294 293 297 295 290 290 292 294 294 294 295 296 297 297 294 292 292 290 288 287 287 286 285 285 284
289 287 286 284 286 292 294 293 292 291 291 290 290 292 291 292 290 294 297 297 296 294 291 294 295 294 296 297 296 294 289 288 287 287 287 287 288 290 293 295 297 297 294 291 290 289 287 286 285 284 284 284 284 283
289 290 290 289 288 288 291 290 289 288 289 288 289 290 291 289 287 292 297 296 295 295 294 294 294 294 294 294 292 289 287 286 284 283 283 283 283 284 289 292 294 293 292 290 289 288 287 286 284 283 283 283 282 282
Wind_Speed
22 23 23 23 24 24 24 24 25 25 23 24 22 20 17 14 11 5 5 3 3 3 13 7 7 4 5 3 4 6 9 4 6 3 4 4 3 4 4 7 14 7 6 1 2 7 3 5 12 2 9 2 7 7
22 23 23 23 24 24 24 26 26 26 24 23 23 21 17 15 13 8 4 3 3 4 9 16 15 16 10 7 5 1 2 1 4 5 8 4 2 3 1 4 11 2 8 5 5 2 12 23 23 18 2 8 6 6
24 23 24 24 24 24 26 27 27 26 24 24 23 22 19 16 13 6 6 4 3 3 8 4 6 11 8 11 7 2 2 2 2 5 2 3 2 1 2 2 4 11 11 4 10 13 25 16 24 27 23 9 4 4
23 23 24 25 25 24 24 25 27 27 25 25 23 21 18 15 14 10 4 4 2 4 4 6 9 2 9 7 9 7 5 4 4 3 3 3 3 3 3 1 2 2 7 10 7 15 20 14 25 29 25 22 26 4
24 24 25 25 26 26 25 25 26 26 25 25 23 21 18 16 14 8 7 5 3 0 4 8 16 4 13 12 15 14 9 7 3 5 4 4 3 2 1 3 1 4 5 2 5 15 3 16 22 28 25 17 18 22
24 24 25 25 26 26 26 26 27 28 25 25 26 22 17 13 9 4 2 2 1 2 3 5 6 4 6 5 6 9 6 4 3 2 4 4 4 3 2 5 3 6 9 6 8 16 11 16 19 23 21 21 20 19
24 25 25 26 26 27 27 26 28 29 27 25 24 20 13 7 2 3 2 1 6 2 2 5 5 4 3 5 3 4 5 4 5 2 4 3 5 4 3 6 8 10 5 8 6 7 13 12 19 25 24 20 18 18
24 25 26 26 26 26 27 27 28 30 28 27 22 18 12 6 7 5 4 4 1 3 1 3 5 5 3 3 3 4 4 3 3 4 2 4 4 3 7 7 5 7 9 3 5 5 6 10 17 18 19 19 19 21
25 25 26 26 26 26 27 27 27 30 31 29 23 18 3 3 3 1 5 5 3 2 3 3 3 4 5 2 2 2 2 3 4 3 4 2 4 6 5 4 6 9 9 10 10 8 9 12 14 17 20 21 10 14
25 26 27 27 26 26 27 26 27 30 34 27 3 3 2 1 3 1 2 2 2 3 3 4 2 4 1 0 2 3 3 3 3 3 5 6 9 12 12 13 13 12 12 8 5 7 8 9 12 13 16 15 15 12
26 26 27 27 26 25 26 24 24 27 15 5 6 3 6 10 1 2 3 1 1 3 3 4 4 9 3 3 1 3 3 4 3 3 5 4 1 8 19 20 21 11 12 11 6 6 7 12 8 12 16 12 15 13
26 27 27 28 27 25 24 23 21 8 5 6 5 7 5 3 2 4 4 3 1 4 5 5 9 4 3 3 2 1 2 3 4 7 3 3 5 13 17 19 19 19 21 12 12 11 13 14 8 5 0 13 19 17
26 27 28 28 27 25 21 22 21 15 12 2 4 4 4 4 6 5 5 3 5 4 6 10 9 2 2 3 2 1 2 4 5 2 3 2 8 16 16 14 15 12 16 12 9 12 14 15 17 13 9 8 17 16
25 28 29 27 26 19 22 25 22 9 2 3 3 6 2 2 3 5 5 6 6 5 9 5 3 2 1 1 2 3 2 2 3 4 4 6 14 14 13 12 13 15 15 15 12 12 13 8 13 15 15 7 12 16
25 29 30 17 19 27 28 26 24 2 3 2 1 3 3 5 5 5 8 5 4 6 5 3 3 3 2 4 3 3 5 4 3 3 4 10 17 10 7 6 8 10 11 11 9 9 8 9 10 8 7 10 11 16
24 26 4 27 26 30 29 20 5 4 2 2 4 3 5 7 4 5 7 4 5 6 4 4 3 4 4 2 4 4 7 4 4 4 10 12 13 9 12 8 6 7 10 8 8 7 7 7 8 9 9 8 12 13
18 6 18 24 27 31 29 4 3 3 3 3 3 4 6 8 2 4 6 4 4 5 2 2 3 2 2 3 3 0 3 4 6 7 6 11 12 7 7 11 11 7 8 9 9 6 8 10 10 6 9 10 11 8
6 10 24 26 19 13 4 4 3 3 4 5 4 7 4 1 2 2 3 7 3 4 4 1 1 2 1 2 4 4 6 7 8 9 8 7 6 5 3 7 9 10 10 12 14 11 5 2 2 2 2 5 4 5
14 16 26 28 9 6 4 4 2 3 5 4 4 6 4 3 3 3 4 5 4 2 1 2 2 2 2 4 6 3 2 3 6 8 4 5 2 5 3 6 8 12 11 11 11 11 10 14 9 6 3 5 3 4
26 23 22 15 6 4 5 4 2 4 3 3 5 7 6 4 4 1 1 5 4 2 2 1 2 4 5 2 4 3 2 3 7 4 5 1 2 1 9 7 6 9 10 12 8 7 9 10 8 6 7 7 7 7
9 2 8 8 6 7 5 4 4 4 4 3 6 5 4 4 2 3 1 2 2 2 2 4 4 3 5 6 5 10 9 5 5 7 4 6 0 4 4 5 7 7 7 7 8 10 9 6 6 6 6 9 6 3
6 9 4 4 5 5 5 5 4 4 3 5 7 8 6 3 3 5 3 3 4 4 2 2 3 4 5 8 3 2 4 13 9 8 10 7 7 5 6 6 3 2 3 6 7 7 9 8 7 7 6 6 7 8
10 3 4 5 5 3 7 3 5 5 4 3 2 2 2 2 3 5 2 3 3 3 2 5 4 5 5 5 3 6 10 12 5 4 7 7 8 9 6 7 8 7 8 8 3 5 6 10 11 9 9 10 5 6
7 4 4 5 6 5 4 4 2 1 2 2 1 3 3 2 4 5 6 4 3 2 3 3 8 2 3 5 2 2 2 4 5 4 4 4 5 8 10 5 7 8 9 8 7 6 8 7 9 12 12 11 6 7
2 7 4 7 5 6 5 4 4 3 4 4 2 3 3 2 1 3 6 7 2 5 4 2 6 3 1 2 2 4 7 4 2 4 4 3 3 3 3 3 4 8 9 9 9 9 7 8 10 11 13 13 13 15
7 6 8 6 4 5 7 5 5 6 5 6 5 3 0 2 4 5 4 4 2 7 6 6 6 3 2 4 3 1 4 3 3 3 4 4 4 3 4 5 5 7 7 7 6 9 9 9 11 13 13 14 14 15
7 8 6 5 3 3 4 5 6 4 4 5 3 2 1 3 5 5 1 2 3 3 3 3 3 0 2 3 3 1 3 4 1 2 3 7 8 8 5 4 4 3 5 7 7 8 8 9 9 10 11 12 12 12
8 5 9 4 5 4 9 9 4 4 5 4 3 6 6 6 5 1 2 2 1 3 2 1 3 3 3 0 2 2 2 4 6 4 5 6 5 4 7 4 3 5 4 6 7 8 8 9 9 10 11 11 10 10
6 5 6 6 5 3 5 7 8 6 6 5 6 6 8 5 5 2 2 4 4 3 3 3 3 3 3 4 6 8 8 7 6 9 8 4 3 4 5 6 5 3 5 7 9 9 12 10 9 10 11 10 9 9
6 8 7 9 9 8 9 6 7 11 11 12 10 9 8 9 4 3 2 1 1 2 2 2 2 1 3 6 5 8 5 5 7 7 5 5 6 2 2 5 5 4 5 7 7 8 10 9 9 8 9 7 7 7
5 7 8 7 8 10 11 10 11 12 10 8 8 6 5 3 4 8 6 3 4 3 3 3 8 7 7 6 6 7 5 3 6 10 6 4 5 8 8 8 5 3 8 10 9 8 8 8 7 8 9 9 9 8
7 8 8 11 8 7 9 7 4 5 7 9 8 7 7 3 4 5 8 8 8 11 9 7 7 7 7 7 7 7 10 8 7 7 9 6 6 7 7 7 5 7 11 11 9 8 8 6 6 8 9 11 10 10
5 8 8 6 3 4 6 9 6 10 10 7 8 9 5 6 6 3 5 9 9 7 7 7 7 7 10 10 9 9 9 7 8 6 6 7 9 9 6 6 7 9 11 8 7 8 6 8 8 9 10 11 11 10
Wind_Direction
339 333 331 332 329 330 330 330 329 328 327 327 328 331 331 327 328 336 277 237 227 249 286 265 331 281 276 319 312 325 326 358 310 241 156 145 213 207 304 321 328 332 305 154 85 83 73 349 301 234 199 156 104 140
338 335 329 330 328 330 330 331 330 327 325 322 323 322 322 325 316 332 269 264 268 222 261 287 285 273 245 240 244 269 246 193 312 342 18 5 3 159 127 257 333 11 355 320 352 31 2 14 1 332 162 123 118 129
337 335 329 329 328 329 333 332 328 325 323 318 317 316 315 316 311 300 289 281 291 270 286 273 226 245 215 224 190 231 238 283 304 198 258 306 49 347 201 205 16 324 354 357 319 351 2 20 344 350 358 2 62 121
331 332 329 329 327 328 330 331 327 323 320 316 314 311 309 310 305 302 272 279 253 280 280 282 338 277 195 189 211 199 250 283 233 250 257 213 192 137 72 256 339 301 318 309 288 6 349 356 342 343 347 348 1 12
330 331 329 329 327 326 329 327 322 318 319 316 316 315 311 308 301 290 262 249 208 271 306 292 296 288 165 199 227 223 222 244 301 319 311 272 257 41 12 54 25 219 234 351 340 325 278 307 322 324 340 341 353 353
329 330 329 330 328 326 328 326 323 320 321 321 326 325 319 312 312 279 335 82 183 271 312 306 327 315 20 312 230 239 222 248 220 214 284 289 19 107 223 222 184 145 206 159 308 334 328 322 313 329 329 330 342 346
328 328 328 329 329 327 327 325 323 320 322 322 325 319 311 311 283 270 289 270 339 296 258 291 291 287 3 332 313 287 267 213 205 240 215 235 283 204 218 265 264 260 215 166 231 273 304 337 323 316 312 312 337 344
326 326 326 327 329 329 327 324 323 321 321 320 321 318 298 299 267 274 219 219 207 243 225 276 272 316 355 343 324 31 299 316 261 218 262 257 259 206 227 229 219 267 282 228 221 240 223 275 303 302 311 321 342 351
323 325 325 325 329 329 327 322 322 322 320 314 315 298 277 197 242 332 139 154 209 282 293 259 282 306 352 338 341 300 283 281 277 250 227 233 226 238 291 311 261 238 227 230 203 180 256 267 287 308 316 304 321 336
321 324 324 324 327 329 325 320 321 325 318 315 304 202 228 54 215 186 128 169 196 215 230 252 167 260 248 71 286 324 323 301 308 281 306 215 244 248 256 263 265 279 286 310 266 181 221 250 272 279 291 302 321 305
320 322 323 323 325 326 321 316 324 331 309 351 349 326 320 309 293 218 292 247 297 275 199 250 278 309 252 215 194 35 335 323 296 7 330 298 60 349 344 336 343 340 280 266 248 238 208 236 246 266 271 275 286 314
318 320 322 322 322 321 318 316 327 339 326 315 287 279 265 286 348 350 314 22 6 279 308 319 314 338 33 56 58 50 341 308 281 340 261 250 6 344 336 332 320 322 321 227 247 252 214 250 253 288 149 279 289 301
317 317 320 320 319 317 316 319 321 319 295 193 203 256 53 309 21 2 336 303 306 285 283 305 321 73 89 72 42 7 330 258 329 269 287 315 314 326 326 324 331 339 338 345 287 262 263 203 217 230 255 250 280 290
316 314 315 317 311 314 322 324 322 340 289 264 345 323 357 1 25 256 260 265 238 234 283 306 335 147 58 83 66 319 322 294 309 325 326 299 318 324 323 323 336 333 331 330 336 340 333 285 203 195 228 233 259 282
317 315 313 305 329 336 327 322 312 235 265 302 29 324 305 269 260 240 249 303 313 315 316 350 23 1 36 52 30 323 334 343 340 284 268 303 306 300 318 342 349 334 328 317 316 321 333 335 328 320 290 214 233 260
321 312 299 354 335 326 319 312 266 210 214 265 217 229 262 277 352 325 325 319 337 339 339 48 5 6 21 32 5 16 320 351 294 268 288 297 308 297 306 295 313 352 337 327 316 309 312 313 290 289 299 303 296 275
316 232 339 327 326 319 304 262 257 218 239 237 255 256 218 260 194 269 311 318 320 331 327 55 28 286 313 18 2 351 277 231 249 285 270 281 307 297 301 332 339 305 339 337 341 331 318 303 272 231 242 247 253 330
256 308 309 311 329 297 266 213 257 247 247 244 239 263 278 355 283 291 280 301 335 333 3 25 56 354 13 305 273 231 239 249 254 260 277 271 288 327 319 312 321 335 338 347 338 337 326 249 83 12 352 104 93 148
290 294 297 296 297 306 281 263 137 262 254 275 300 283 277 293 336 227 256 303 288 288 339 28 348 339 218 223 250 284 320 307 300 300 245 297 356 72 28 352 337 339 352 353 354 344 344 23 38 42 44 77 96 63
293 292 279 286 181 258 263 264 217 216 256 254 290 292 276 254 231 210 53 308 305 357 45 351 220 260 298 346 315 330 302 256 298 337 351 344 39 69 63 56 32 358 356 352 353 346 14 24 13 359 13 22 47 49
285 296 269 237 215 218 274 273 256 210 235 225 243 280 277 296 295 308 165 299 344 259 205 242 269 102 85 51 357 329 334 7 33 322 338 320 265 61 95 95 52 31 35 347 348 10 33 16 346 8 14 47 15 305
253 275 278 241 238 233 232 221 242 262 246 265 274 270 273 270 257 261 227 203 187 243 230 310 311 51 23 33 67 315 315 318 33 6 349 9 6 12 24 23 60 26 14 52 8 359 20 45 29 11 351 49 64 46
281 245 221 241 264 253 260 268 240 215 245 272 304 327 266 260 260 290 203 230 206 238 100 309 330 95 90 62 4 349 16 351 347 85 342 345 27 0 12 25 17 20 17 11 356 1 26 15 33 31 32 20 13 66
211 243 243 237 214 245 253 255 247 286 299 299 267 243 253 261 274 279 269 252 143 124 117 271 304 207 137 90 28 360 303 326 336 357 11 5 29 23 340 10 12 19 14 356 17 25 32 37 41 22 16 31 30 82
256 243 200 246 266 238 215 226 207 237 246 211 231 253 249 281 303 288 278 270 197 134 113 288 313 349 146 106 7 301 263 207 189 339 343 85 169 185 232 25 1 25 12 10 19 22 26 36 44 56 38 29 28 49
226 240 202 219 227 221 201 210 207 221 232 208 223 229 264 244 217 243 246 261 149 137 180 202 203 209 280 149 153 335 313 346 45 32 334 333 60 34 25 44 26 14 11 359 21 29 23 40 52 59 48 45 32 38
233 240 228 238 262 247 272 260 241 232 212 214 186 151 144 248 236 237 217 24 124 101 75 42 63 333 261 277 67 357 332 334 23 117 337 40 36 21 31 67 39 344 350 6 27 37 42 53 48 52 60 56 47 39
231 252 220 203 233 246 268 267 265 255 226 208 190 190 190 208 240 182 109 200 237 169 183 213 237 244 277 182 162 277 11 356 5 28 92 66 356 359 25 331 112 104 54 15 46 37 33 49 44 56 62 57 51 46
224 219 214 236 220 221 232 222 227 236 256 243 220 219 240 240 239 254 193 188 188 193 227 265 66 48 354 321 72 57 43 4 9 41 67 28 8 338 350 336 18 72 108 81 53 58 60 48 57 59 55 63 64 57
231 198 203 206 208 224 205 222 248 232 228 241 255 272 253 225 249 9 335 10 333 278 268 4 63 30 48 66 92 77 54 31 15 38 50 20 349 359 13 16 355 15 41 65 66 71 49 56 53 58 67 66 59 54
245 205 206 212 240 248 249 240 235 234 258 276 273 272 264 207 174 200 223 237 231 190 169 147 86 71 73 61 96 108 112 69 53 54 31 7 7 1 357 346 328 42 82 76 57 51 67 71 78 83 84 79 70 69
203 213 233 247 241 242 257 247 242 268 266 257 266 261 265 307 353 34 14 23 29 51 20 28 88 77 80 82 80 69 63 74 64 42 31 21 8 348 323 331 6 67 90 84 86 80 61 72 87 90 90 91 91 87
228 238 251 255 247 205 218 228 227 235 239 234 230 251 247 178 193 92 50 38 58 69 55 60 53 42 57 68 92 92 83 90 95 76 61 48 30 9 3 354 63 71 81 88 89 91 84 93 92 93 92 91 88 81